GW2297 Weather Reports


Display with metric or nautical units.
time (UTC)temp
F
wind
direction
speed
MPH
gust
MPH
rain 1hr
in
rain 24hr
in
rain mn
in
humidity
%
barometer
mb
20260504034547 59 0 0.0 0.0 0.00 0.00 0.00 77 1019.4
20260504033048 59 0 0.0 0.0 0.00 0.00 0.00 76 1019.5
20260504031553 59 0 0.0 0.0 0.00 0.00 0.00 74 1019.3
20260504030050 60 0 0.0 4.0 0.00 0.00 0.00 73 1019.2
20260504024546 60 340 0.0 1.0 0.00 0.00 0.00 71 1019.1
20260504023046 61 0 0.0 0.0 0.00 0.00 0.00 69 1019.0
20260504021550 62 0 0.0 0.0 0.00 0.00 0.00 67 1018.9
20260504020106 62 0 0.0 0.0 0.00 0.00 0.00 66 1018.9
20260504014545 63 0 0.0 0.0 0.00 0.00 0.00 64 1018.7
20260504013048 64 0 0.0 0.0 0.00 0.00 0.00 61 1018.7
20260504011546 65 0 0.0 0.0 0.00 0.00 0.00 57 1018.5
20260504010054 67 0 0.0 0.0 0.00 0.00 0.00 54 1018.3
20260504004549 68 0 0.0 0.0 0.00 0.00 0.00 52 1018.2
20260504003052 70 0 0.0 2.0 0.00 0.00 0.00 49 1018.1
20260504001553 72 0 0.0 3.0 0.00 0.00 0.00 44 1017.9
20260504000051 73 0 1.0 4.0 0.00 0.00 0.00 43 1018.1
20260503234602 75 296 0.0 3.0 0.00 0.00 0.00 40 1018.0
20260503233053 75 291 1.0 5.0 0.00 0.00 0.00 39 1018.1
20260503231547 75 303 1.0 4.0 0.00 0.00 0.00 38 1018.2
20260503230048 76 0 0.0 5.0 0.00 0.00 0.00 38 1018.1
20260503224541 75 22 1.0 7.0 0.00 0.00 0.00 37 1018.2
20260503223047 76 308 2.0 8.0 0.00 0.00 0.00 39 1018.3
20260503221555 76 261 1.0 6.0 0.00 0.00 0.00 38 1018.3
20260503220046 76 293 3.0 8.0 0.00 0.00 0.00 38 1018.3
20260503214539 76 0 3.0 8.0 0.00 0.00 0.00 39 1018.5
20260503213044 76 235 2.0 8.0 0.00 0.00 0.00 38 1018.5
20260503211549 76 258 4.0 10.0 0.00 0.00 0.00 37 1018.7
20260503210044 76 270 2.0 7.0 0.00 0.00 0.00 38 1018.7
20260503204552 76 278 3.0 8.0 0.00 0.00 0.00 36 1019.0
20260503203056 75 294 2.0 7.0 0.00 0.00 0.00 37 1019.2
20260503201551 75 259 2.0 15.0 0.00 0.00 0.00 40 1019.5
20260503200054 75 99 1.0 9.0 0.00 0.00 0.00 37 1019.8
20260503194554 75 255 4.0 9.0 0.00 0.00 0.00 37 1020.1
20260503193043 74 296 3.0 7.0 0.00 0.00 0.00 39 1020.5
20260503191553 74 284 3.0 8.0 0.00 0.00 0.00 37 1020.5
20260503190049 74 332 4.0 11.0 0.00 0.00 0.00 37 1020.6
20260503184548 73 172 1.0 6.0 0.00 0.00 0.00 40 1021.0
20260503183044 73 64 3.0 10.0 0.00 0.00 0.00 39 1021.2
20260503181544 73 283 4.0 12.0 0.00 0.00 0.00 40 1021.4
20260503180055 73 304 1.0 8.0 0.00 0.00 0.00 43 1021.6
20260503174549 72 322 3.0 8.0 0.00 0.00 0.00 39 1021.8
20260503173046 72 275 3.0 13.0 0.00 0.00 0.00 38 1022.0
20260503171547 71 351 4.0 10.0 0.00 0.00 0.00 41 1022.1
20260503081550 49 0 0.0 0.0 0.00 0.16 0.00 87 1019.6
20260503071602 51 0 0.0 0.0 0.00 0.28 0.00 83 1019.3
20260503060108 52 0 0.0 0.0 0.00 0.40 0.00 79 1019.3
20260503054554 53 0 0.0 1.0 0.00 0.50 0.00 78 1019.2
20260503053042 54 0 0.0 1.0 0.00 0.50 0.00 77 1019.1
20260503051548 55 0 0.0 0.0 0.00 0.50 0.00 75 1019.2
20260503050050 55 0 0.0 1.0 0.00 0.50 0.00 71 1019.2
20260503044550 55 0 0.0 0.0 0.00 0.52 0.50 70 1019.2
20260503043045 56 0 0.0 0.0 0.00 0.52 0.50 69 1019.0
20260503041551 56 0 0.0 1.0 0.00 0.52 0.50 68 1019.1